[[{"header":{"parameterUnit":"m.s-1","parameterCategory":1,"la1":30.2991,"la2":30.254,"lo1":-89.0895,"lo2":-89.0444,"dy":0.0017,"dx":0.0017,"nx":28,"ny":28,"refTime":"2025-12-10T09:00:00:Z","depth":0,"parameterNumber":2,"parameterNumberName":"U-component_of_WINDS"},"data":[0,0,0,0,0,0,0,0,0,0,0,0,0,0,0,0,0,0,0,0,0,0,0,0,0,0,0,0,0,0,0,0,0,0,0,0,0,0,0,0,0,0,0,0,0,0,0,0,0,0,0,0,0,0,0,0,0,0,-0.25,-0.2501,0,-0.2563,-0.2564,-0.2565,-0.2586,-0.2586,-0.2586,-0.2586,-0.2654,-0.2656,-0.2658,0,0,0,0,0,0,0,0,0,0,0,0,0,-0.2404,-0.2406,-0.25,-0.2501,-0.2502,-0.2563,-0.2564,-0.2565,-0.2587,-0.2586,-0.2586,-0.2586,-0.2653,-0.2655,-0.2658,0,0,0,0,0,0,0,0,0,0,0,0,0,-0.2454,-0.2406,-0.25,-0.252,-0.2523,-0.2563,-0.2564,-0.2565,-0.2587,-0.2586,-0.2586,-0.2586,-0.2652,-0.2655,-0.2658,-0.2684,0,0,-0.2667,-0.2669,0,0,0,0,0,0,0,0,-0.2451,-0.2458,-0.2516,-0.2519,-0.2522,-0.2566,-0.2555,-0.2605,-0.2587,-0.2562,-0.2586,-0.2585,-0.2625,-0.263,-0.2643,-0.2688,-0.269,-0.2668,-0.267,-0.2671,-0.2672,0,0,0,0,0,0,0,-0.2448,-0.2455,-0.2525,-0.2517,-0.252,-0.2527,-0.2534,-0.2564,-0.2595,-0.2564,-0.2566,-0.2573,-0.2627,-0.264,-0.2645,-0.2691,-0.2668,-0.267,-0.2672,-0.2673,-0.2762,-0.2762,0,0,0,0,0,0,-0.244,-0.2452,-0.2523,-0.2527,-0.2485,-0.2529,-0.2537,-0.2553,-0.2595,-0.2601,-0.2573,-0.2574,-0.2635,-0.2641,-0.2647,-0.2681,-0.2671,-0.2674,-0.2675,-0.2761,-0.2762,-0.2763,0,0,0,0,0,0,-0.2438,-0.2447,-0.2521,-0.249,-0.25,-0.2531,-0.2549,-0.2554,-0.2567,-0.2602,-0.2608,-0.2581,-0.2635,-0.2643,-0.2675,-0.2684,-0.2675,-0.2678,-0.2761,-0.2762,-0.2762,-0.2749,0,0,0,0,0,0,-0.2435,-0.2446,-0.2455,-0.249,-0.2502,-0.2546,-0.2549,-0.2555,-0.2572,-0.2574,-0.2611,-0.2616,-0.2635,-0.267,-0.2678,-0.2688,-0.268,-0.276,-0.2761,-0.2762,-0.2749,-0.275,-0.275,0,0,0,0,0,-0.2432,-0.2449,-0.2455,-0.2464,-0.2514,-0.2547,-0.2553,-0.2574,-0.2573,-0.2583,-0.2605,-0.2615,-0.2682,-0.2673,-0.2682,-0.2693,-0.276,-0.2761,-0.2762,-0.2749,-0.275,-0.275,0,0,0,0,0,0,-0.2416,-0.2454,-0.2461,-0.249,-0.2515,-0.255,-0.2564,-0.2573,-0.26,-0.26,-0.2625,-0.2634,-0.2664,-0.2682,-0.2672,-0.2722,-0.2721,-0.2724,-0.2709,-0.2709,-0.271,-0.2705,-0.2683,0,0,0,0,0,-0.2415,-0.2437,-0.2471,-0.2493,-0.2505,-0.2532,-0.2547,-0.2561,-0.2588,-0.2598,-0.2623,-0.265,-0.2677,-0.2694,-0.2721,-0.2752,-0.2761,-0.2764,-0.2765,-0.2765,-0.2767,-0.2786,-0.2788,-0.2766,-0.2766,-0.2766,0,0,-0.2415,-0.2439,-0.2452,-0.2491,-0.2511,-0.2535,-0.2541,-0.2565,-0.2584,-0.2603,-0.2634,-0.2653,-0.2685,-0.2716,-0.2732,-0.2733,-0.2775,-0.2766,-0.2766,-0.2769,-0.2787,-0.2789,-0.2791,-0.2767,-0.2767,-0.2767,0,0,-0.2427,-0.2447,-0.2468,-0.2488,-0.2519,-0.2537,-0.2542,-0.2576,-0.2589,-0.262,-0.2635,-0.2658,-0.2704,-0.2726,-0.2744,-0.2764,-0.2775,-0.2772,-0.2775,-0.2793,-0.2795,-0.2796,-0.2804,-0.2807,-0.2775,-0.2775,-0.2775,0,-0.2423,-0.2458,-0.2478,-0.2502,-0.2519,-0.2536,-0.2559,-0.2578,-0.2616,-0.2628,-0.2629,-0.2687,-0.2709,-0.2747,-0.2752,-0.2765,-0.2773,-0.2768,-0.2792,-0.2794,-0.2796,-0.2804,-0.2807,-0.2774,-0.2774,-0.2774,-0.2774,0,-0.2452,-0.2476,-0.249,-0.2525,-0.2544,-0.2567,-0.2592,-0.2609,-0.2621,-0.264,-0.2673,-0.27,-0.2733,-0.2743,-0.2756,-0.2783,-0.2783,-0.2787,-0.2788,-0.2797,-0.2805,-0.2809,-0.2774,-0.2774,-0.2774,-0.2774,0,0,-0.2455,-0.2501,-0.2506,-0.2522,-0.2558,-0.2577,-0.2602,-0.2633,-0.2648,-0.2674,-0.2696,-0.2734,-0.2739,-0.2759,-0.2774,-0.279,-0.2805,-0.2793,-0.2794,-0.2795,-0.2838,-0.2835,-0.2838,-0.2813,-0.2813,-0.2814,-0.2836,0,-0.2472,-0.2514,-0.2534,-0.2569,-0.2592,-0.2609,-0.2631,-0.2655,-0.2673,-0.2697,-0.2718,-0.2745,-0.2749,-0.2761,-0.2777,-0.28,-0.2815,-0.2799,-0.2835,-0.2836,-0.2826,-0.2842,-0.2838,-0.2857,-0.2839,-0.284,-0.284,0,-0.2497,-0.2521,-0.2558,-0.2591,-0.2602,-0.2621,-0.2651,-0.2673,-0.2702,-0.2714,-0.2736,-0.2751,-0.2779,-0.2777,-0.2817,-0.2806,-0.2822,-0.2835,-0.2837,-0.2841,-0.2838,-0.2847,-0.2864,-0.2867,-0.2845,-0.2845,-0.2844,0,-0.2496,-0.2539,-0.2566,-0.258,-0.2619,-0.2632,-0.2649,-0.2678,-0.2695,-0.2723,-0.2735,-0.2765,-0.2782,-0.2806,-0.2829,-0.2826,-0.2867,-0.2867,-0.2879,-0.2879,-0.2887,-0.2886,-0.2907,-0.2897,-0.2897,-0.2897,-0.2897,0,-0.2512,-0.2534,-0.2566,-0.2583,-0.2609,-0.2632,-0.2657,-0.2676,-0.2701,-0.2723,-0.2741,-0.2761,-0.279,-0.2815,-0.2834,-0.2864,-0.2872,-0.2883,-0.2888,-0.2882,-0.2881,-0.2893,-0.2892,-0.2898,-0.2897,-0.2897,-0.2897,0,-0.2515,-0.2537,-0.2569,-0.2603,-0.2612,-0.263,-0.266,-0.2678,-0.2697,-0.2725,-0.2733,-0.2764,-0.2794,-0.2819,-0.2859,-0.2872,-0.2904,-0.2909,-0.2893,-0.2896,-0.2907,-0.2905,-0.2936,-0.2942,-0.2927,-0.2928,-0.2928,0,-0.2524,-0.2542,-0.2578,-0.2593,-0.2609,-0.2634,-0.2652,-0.2676,-0.2694,-0.2729,-0.2743,-0.2774,-0.28,-0.2848,-0.2875,-0.2906,-0.2912,-0.2921,-0.2917,-0.2911,-0.2913,-0.2912,-0.2914,-0.2921,-0.2922,-0.2922,-0.2922,0,-0.2539,-0.2549,-0.2573,-0.2601,-0.2622,-0.2646,-0.2671,-0.2683,-0.2711,-0.2731,-0.2761,-0.2782,-0.2822,-0.2854,-0.2887,-0.2907,-0.292,-0.2923,-0.2927,-0.2921,-0.2911,-0.2917,-0.2895,-0.2922,-0.2922,-0.2922,-0.2922,-0.2922,-0.2545,-0.2562,-0.2589,-0.2616,-0.2637,-0.266,-0.2678,-0.2699,-0.2725,-0.2759,-0.2771,-0.2803,-0.2833,-0.288,-0.2899,-0.2925,-0.2927,-0.2933,-0.2935,-0.2936,-0.2936,-0.2907,-0.2932,-0.2932,-0.2932,-0.2932,-0.2932,0,-0.2561,-0.2579,-0.2604,-0.2637,-0.2658,-0.2667,-0.2695,-0.2713,-0.274,-0.2766,-0.2791,-0.2827,-0.2857,-0.2886,-0.2919,-0.2934,-0.2941,-0.2942,-0.2941,-0.2946,-0.2932,-0.2925,-0.2936,-0.2936,-0.2936,-0.2936,-0.2936,-0.2936,-0.2571,-0.2599,-0.2613,-0.2652,-0.2671,-0.2701,-0.2716,-0.2738,-0.2759,-0.2797,-0.2822,-0.284,-0.2868,-0.2903,-0.2932,-0.294,-0.2951,-0.2951,-0.2961,-0.2947,-0.2947,-0.2946,-0.2939,-0.2953,-0.2953,-0.2972,-0.2972,-0.2972]},{"header":{"parameterUnit":"m.s-1","parameterCategory":1,"la1":30.2991,"la2":30.254,"lo1":-89.0895,"lo2":-89.0444,"dy":0.0017,"dx":0.0017,"nx":28,"ny":28,"refTime":"2025-12-10T09:00:00:Z","depth":0,"parameterNumber":3,"parameterNumberName":"V-component_of_WINDS"},"data":[0,0,0,0,0,0,0,0,0,0,0,0,0,0,0,0,0,0,0,0,0,0,0,0,0,0,0,0,0,0,0,0,0,0,0,0,0,0,0,0,0,0,0,0,0,0,0,0,0,0,0,0,0,0,0,0,0,0,0.5831,0.5829,0,0.5719,0.5718,0.5717,0.5593,0.5591,0.5589,0.5588,0.5468,0.5467,0.5465,0,0,0,0,0,0,0,0,0,0,0,0,0,0.5931,0.5929,0.5831,0.5829,0.5828,0.572,0.5718,0.5717,0.5593,0.5591,0.5589,0.5587,0.5468,0.5467,0.5465,0,0,0,0,0,0,0,0,0,0,0,0,0,0.586,0.5929,0.5831,0.5753,0.5745,0.572,0.5718,0.5716,0.5594,0.5591,0.5588,0.5586,0.5469,0.5467,0.5465,0.5505,0,0,0.5458,0.5457,0,0,0,0,0,0,0,0,0.5864,0.5857,0.5766,0.5759,0.575,0.5667,0.5709,0.5645,0.5594,0.5651,0.5587,0.5584,0.5536,0.5528,0.5513,0.5499,0.5494,0.5458,0.5456,0.5455,0.5455,0,0,0,0,0,0,0,0.5869,0.5861,0.5786,0.5765,0.5755,0.5722,0.5709,0.5697,0.561,0.5646,0.5637,0.5625,0.5531,0.5516,0.5509,0.5492,0.5458,0.5456,0.5454,0.5453,0.5505,0.5507,0,0,0,0,0,0,0.5887,0.5866,0.579,0.5783,0.5802,0.5723,0.5708,0.5696,0.561,0.5594,0.5628,0.562,0.5521,0.5512,0.5505,0.5546,0.5455,0.5453,0.5452,0.5502,0.5505,0.5508,0,0,0,0,0,0,0.5889,0.5881,0.5794,0.5822,0.5808,0.5724,0.5712,0.5696,0.568,0.5596,0.558,0.5629,0.5518,0.5508,0.5506,0.554,0.5452,0.545,0.5499,0.5503,0.5507,0.563,0,0,0,0,0,0,0.5893,0.5883,0.5899,0.5823,0.5807,0.58,0.5714,0.5695,0.5677,0.5666,0.5592,0.5578,0.5515,0.551,0.5504,0.5536,0.5448,0.5495,0.5501,0.5505,0.5623,0.5638,0.5651,0,0,0,0,0,0.5897,0.5937,0.59,0.5892,0.5826,0.5802,0.5793,0.5723,0.5681,0.5695,0.5641,0.558,0.5537,0.5511,0.5503,0.5535,0.5493,0.5499,0.5505,0.5616,0.5635,0.5651,0,0,0,0,0,0,0.6017,0.5926,0.5884,0.5901,0.5861,0.5782,0.5798,0.5744,0.5714,0.5704,0.5616,0.56,0.5609,0.557,0.5543,0.5568,0.5506,0.5511,0.5594,0.561,0.5624,0.5634,0.5446,0,0,0,0,0,0.6046,0.6037,0.5956,0.5979,0.5961,0.5883,0.587,0.5819,0.5773,0.5755,0.57,0.5656,0.5632,0.5619,0.5592,0.5616,0.5597,0.5633,0.5647,0.566,0.5665,0.5674,0.5689,0.5528,0.5528,0.5528,0,0,0.6105,0.6054,0.6053,0.6002,0.5964,0.5955,0.587,0.5863,0.5855,0.5753,0.5749,0.5707,0.5652,0.5663,0.5665,0.5631,0.5705,0.5667,0.5678,0.5676,0.5682,0.5697,0.5711,0.5532,0.5532,0.5531,0,0,0.6208,0.6169,0.6184,0.6148,0.6093,0.6041,0.6045,0.5973,0.5943,0.5937,0.5861,0.5848,0.5809,0.5773,0.575,0.5838,0.5781,0.5832,0.5906,0.5916,0.5929,0.594,0.5972,0.5984,0.5837,0.5837,0.5838,0,0.6289,0.6273,0.6198,0.6196,0.6176,0.6084,0.6098,0.6066,0.6005,0.5992,0.5956,0.5906,0.5862,0.5863,0.5885,0.5868,0.5869,0.5841,0.5934,0.5944,0.5953,0.5982,0.5994,0.5844,0.5843,0.5843,0.5842,0,0.6375,0.6365,0.6383,0.6329,0.6309,0.6316,0.6239,0.6229,0.6179,0.613,0.6125,0.6069,0.603,0.6026,0.5976,0.602,0.6001,0.595,0.5886,0.5976,0.6002,0.6013,0.5854,0.5851,0.5849,0.5848,0,0,0.6553,0.6456,0.6464,0.6438,0.637,0.636,0.6361,0.6324,0.6317,0.6277,0.6275,0.6244,0.6197,0.617,0.6115,0.6124,0.6198,0.6072,0.6069,0.6098,0.6243,0.6283,0.6297,0.6159,0.6161,0.6162,0.6248,0,0.6645,0.6644,0.6575,0.6593,0.6582,0.6495,0.6495,0.6453,0.6407,0.6389,0.6337,0.6317,0.6256,0.6239,0.6244,0.6189,0.6226,0.6181,0.6155,0.6156,0.6174,0.6311,0.6353,0.6436,0.6257,0.6259,0.626,0,0.6753,0.6721,0.6739,0.667,0.6663,0.6665,0.6626,0.6611,0.656,0.6525,0.6496,0.6434,0.6428,0.6367,0.6356,0.6328,0.6312,0.6283,0.6284,0.6281,0.6215,0.6312,0.6461,0.6475,0.6275,0.6274,0.6273,0,0.6883,0.6844,0.6849,0.6829,0.6749,0.6753,0.6719,0.6665,0.6648,0.6612,0.6599,0.6563,0.6543,0.6515,0.6444,0.6406,0.6442,0.6375,0.6413,0.6415,0.6426,0.6427,0.6577,0.6414,0.6414,0.6414,0.6414,0,0.6994,0.7008,0.6906,0.691,0.6923,0.6842,0.6856,0.6814,0.6767,0.6759,0.6679,0.6673,0.6579,0.6561,0.6505,0.6505,0.6496,0.6468,0.6453,0.6476,0.648,0.6466,0.6459,0.6417,0.6416,0.6416,0.6415,0,0.7141,0.7074,0.7074,0.6998,0.698,0.6992,0.6926,0.6925,0.6874,0.6865,0.6858,0.6777,0.6752,0.6678,0.6634,0.6596,0.6613,0.6584,0.6631,0.6622,0.6665,0.6662,0.6812,0.6828,0.6655,0.6657,0.6658,0,0.7218,0.7227,0.7152,0.7143,0.7113,0.7098,0.7079,0.7,0.6984,0.6926,0.6932,0.6901,0.6873,0.6837,0.6772,0.6738,0.6708,0.6763,0.6702,0.6725,0.671,0.6711,0.6712,0.6777,0.6779,0.6781,0.6783,0,0.7361,0.7327,0.7305,0.7272,0.7253,0.7222,0.7186,0.7182,0.7092,0.7078,0.7053,0.7031,0.6987,0.6957,0.6912,0.6874,0.6814,0.6802,0.6809,0.6834,0.6861,0.6848,0.6669,0.6799,0.6798,0.6796,0.6795,0.6795,0.7475,0.748,0.7428,0.7406,0.7371,0.734,0.7336,0.7284,0.7262,0.7222,0.7175,0.7155,0.7102,0.7036,0.7003,0.6984,0.6952,0.6962,0.6965,0.6969,0.698,0.6863,0.6976,0.6975,0.6974,0.6974,0.6973,0,0.7615,0.7578,0.7558,0.7512,0.7495,0.744,0.7397,0.7386,0.737,0.7327,0.7301,0.7271,0.7242,0.7175,0.7139,0.7137,0.7108,0.713,0.713,0.7123,0.7011,0.7009,0.7154,0.7154,0.7154,0.7154,0.7154,0.7154,0.7686,0.7691,0.7651,0.7636,0.7597,0.758,0.756,0.753,0.7495,0.7467,0.7443,0.74,0.7346,0.7305,0.7275,0.7256,0.7246,0.7278,0.725,0.7147,0.713,0.7114,0.7112,0.7277,0.7277,0.7363,0.7364,0.7365]}]]